FW2876 Weather Reports


time (UTC)temp
C
wind
direction
speed
KPH
gust
KPH
rain 1hr
cm
rain 24hr
cm
rain mn
cm
humidity
%
barometer
mb
20260507103009 9 360 4.8 9.7 0.00 0.00 0.00 63 1021.3
20260507101514 9 360 6.4 14.5 0.00 0.00 0.00 63 1021.1
20260507100005 10 360 8.0 14.5 0.00 0.00 0.00 63 1020.7
20260507094503 10 360 9.7 17.7 0.00 0.00 0.00 63 1020.6
20260507093102 10 360 11.3 17.7 0.00 0.00 0.00 64 1020.5
20260507091558 10 360 8.0 14.5 0.00 0.00 0.00 64 1020.4
20260507090106 10 360 8.0 17.7 0.00 0.00 0.00 63 1020.1
20260507084552 10 360 8.0 14.5 0.00 0.00 0.00 64 1020.0
20260507083050 10 360 8.0 17.7 0.00 0.00 0.00 63 1019.8
20260507081547 10 360 11.3 17.7 0.00 0.00 0.00 64 1019.5
20260507080046 10 360 8.0 14.5 0.00 0.00 0.00 63 1019.7
20260507074547 10 360 6.4 12.9 0.00 0.00 0.00 63 1019.8
20260507073041 11 360 6.4 17.7 0.00 0.00 0.00 62 1019.5
20260507071538 11 360 6.4 14.5 0.00 0.00 0.00 62 1019.5
20260507070036 11 360 6.4 12.9 0.00 0.00 0.00 61 1019.3
20260507064533 11 360 8.0 14.5 0.00 0.00 0.00 60 1019.2
20260507063031 11 360 8.0 14.5 0.00 0.00 0.00 60 1019.1
20260507061527 11 360 6.4 14.5 0.00 0.00 0.00 59 1018.7
20260507060024 12 360 4.8 12.9 0.00 0.00 0.00 58 1018.5
20260507054521 12 360 6.4 12.9 0.00 0.00 0.00 58 1018.2
20260507053018 12 360 6.4 14.5 0.00 0.00 0.00 56 1018.0
20260507051517 13 360 6.4 14.5 0.00 0.00 0.00 55 1017.9
20260507050012 13 360 8.0 17.7 0.00 0.00 0.00 54 1017.6
20260507044511 13 360 8.0 14.5 0.00 0.00 0.00 54 1017.3
20260507043010 13 360 12.9 22.5 0.00 0.00 0.00 53 1017.0
20260507041523 13 360 14.5 25.7 0.00 0.00 0.00 52 1017.0
20260507040008 14 360 11.3 17.7 0.00 0.00 0.00 51 1017.1
20260507034511 14 360 12.9 20.9 0.00 0.00 0.00 50 1016.8
20260507033009 15 360 14.5 24.1 0.00 0.00 0.00 50 1016.6
20260507031503 15 360 12.9 20.9 0.00 0.00 0.00 49 1016.5
20260507030004 15 104 9.7 19.3 0.00 0.00 0.00 47 1016.4
20260507024504 16 360 12.9 20.9 0.00 0.00 0.00 46 1016.1
20260507023113 16 360 14.5 20.9 0.00 0.00 0.00 45 1015.9
20260507021558 16 360 12.9 22.5 0.00 0.00 0.00 43 1015.3
20260507020058 16 360 12.9 22.5 0.00 0.00 0.00 42 1015.2
20260507014607 17 360 9.7 20.9 0.00 0.00 0.00 41 1015.2
20260507013113 17 360 14.5 24.1 0.00 0.00 0.00 40 1014.8
20260507011556 18 360 11.3 25.7 0.00 0.00 0.00 38 1014.7
20260507010056 18 360 14.5 22.5 0.00 0.00 0.00 37 1014.4
20260507004554 19 360 17.7 22.5 0.00 0.00 0.00 36 1014.2
20260507003053 20 360 16.1 27.4 0.00 0.00 0.00 35 1014.1
20260507001609 19 360 16.1 22.5 0.00 0.00 0.00 35 1014.1
20260507000053 19 360 12.9 24.1 0.00 0.00 0.00 35 1014.0
20260506234553 20 360 11.3 22.5 0.00 0.00 0.00 34 1013.9
20260506233051 20 360 14.5 22.5 0.00 0.00 0.00 33 1013.9
20260506231551 20 360 11.3 22.5 0.00 0.00 0.00 34 1014.0
20260506230050 20 360 9.7 20.9 0.00 0.00 0.00 34 1013.9
20260506224549 20 360 12.9 22.5 0.00 0.00 0.00 33 1013.7
20260506223103 20 360 11.3 19.3 0.00 0.00 0.00 33 1013.7
20260506221547 20 360 6.4 27.4 0.00 0.00 0.00 34 1013.6
20260506220045 20 360 6.4 16.1 0.00 0.00 0.00 35 1013.5
20260506214544 19 360 9.7 22.5 0.00 0.00 0.00 35 1013.6
20260506213042 19 360 12.9 19.3 0.00 0.00 0.00 37 1013.5
20260506211543 18 360 8.0 14.5 0.00 0.00 0.00 38 1013.7
20260506210040 18 360 3.2 16.1 0.00 0.00 0.00 39 1013.9
20260506204536 17 360 8.0 14.5 0.00 0.00 0.00 40 1014.0
20260506203041 16 360 4.8 16.1 0.00 0.00 0.00 43 1014.1
20260506201531 16 360 8.0 16.1 0.00 0.00 0.00 43 1014.2
20260506200029 16 360 4.8 16.1 0.00 0.00 0.00 43 1014.3
20260506194528 16 360 4.8 17.7 0.00 0.00 0.00 43 1014.3
20260506193026 16 360 9.7 20.9 0.00 0.00 0.00 44 1014.5
20260506191526 15 360 14.5 20.9 0.00 0.00 0.00 44 1014.7
20260506190025 15 360 9.7 20.9 0.00 0.00 0.00 44 1014.6
20260506184525 15 360 9.7 17.7 0.00 0.00 0.00 45 1014.9
20260506183025 15 360 9.7 22.5 0.00 0.00 0.00 45 1014.8
20260506181529 16 360 8.0 20.9 0.00 0.00 0.00 45 1014.9
20260506180031 15 360 6.4 19.3 0.00 0.00 0.00 48 1014.8
20260506174516 14 360 11.3 19.3 0.00 0.00 0.00 49 1015.1
20260506173016 13 360 14.5 20.9 0.00 0.00 0.00 51 1015.2
20260506171524 13 360 8.0 20.9 0.00 0.00 0.00 53 1015.2
20260506170013 12 360 8.0 24.1 0.00 0.00 0.00 54 1014.9
20260506164612 12 360 11.3 27.4 0.00 0.00 0.00 55 1015.0
20260506163019 12 360 12.9 22.5 0.00 0.00 0.00 56 1015.1
20260506161519 11 360 14.5 22.5 0.00 0.00 0.00 57 1015.0
20260506160013 11 360 9.7 25.7 0.00 0.00 0.00 60 1014.7
20260506154508 10 360 11.3 27.4 0.00 0.00 0.00 61 1014.5
20260506153010 10 360 17.7 25.7 0.00 0.00 0.00 62 1014.6
20260506151506 10 360 14.5 25.7 0.00 0.00 0.00 62 1014.7
20260506150007 10 360 16.1 25.7 0.00 0.00 0.00 62 1014.7
20260506144505 10 360 14.5 22.5 0.00 0.00 0.00 63 1014.7
20260506143008 10 360 16.1 27.4 0.00 0.00 0.00 63 1014.7
20260506141503 10 360 14.5 27.4 0.00 0.00 0.00 64 1014.6
20260506140001 10 360 12.9 25.7 0.00 0.00 0.00 64 1014.6
20260506134620 10 360 11.3 24.1 0.00 0.00 0.00 64 1014.2
20260506133059 10 360 19.3 29.0 0.00 0.00 0.00 63 1013.7
20260506131611 10 360 14.5 22.5 0.00 0.00 0.00 63 1013.8
20260506130058 10 360 12.9 20.9 0.00 0.00 0.00 63 1014.0
20260506124555 10 360 14.5 24.1 0.00 0.00 0.00 63 1013.4
20260506123053 10 360 16.1 27.4 0.00 0.00 0.00 64 1012.6
20260506121549 10 360 20.9 33.8 0.00 0.00 0.00 64 1011.8
20260506120047 10 360 19.3 37.0 0.00 0.00 0.00 63 1011.4
20260506114548 10 360 22.5 32.2 0.00 0.00 0.00 62 1011.0
20260506113042 10 360 17.7 29.0 0.00 0.00 0.00 62 1011.0
20260506111537 10 360 19.3 30.6 0.00 0.00 0.00 61 1010.7
20260506110035 10 360 14.5 25.7 0.00 0.00 0.00 61 1010.6
20260506104533 10 360 12.9 25.7 0.00 0.00 0.00 61 1010.7